Location: Great Falls
(47.5000°N, 111.3000°W)
Time: 07:36:23
(UTC-06:00)

ISS - Pass Details

Date: 22 April 2025
Orbit: 416 x 420 km, 51.6° (Epoch: 15 May)

Event Time Altitude Azimuth Distance (km) Brightness Sun altitude
Exits shadow 04:14:05 12° 140° (SE) 1,347 -1.3 -19.1°
Maximum altitude 04:14:25 13° 134° (SE) 1,340 -1.2 -19.1°
Drops below altitude 10° 04:15:56 10° 107° (ESE) 1,492 -0.6 -18.9°
Sets 04:18:58 0° 77° (ENE) 2,361 1.1 -18.6°
